This demonstration page uses our WeatherBlox Daily Observations layout. Learn more.

Left ArrowRight Arrow

39.12711, -84.51439

Hourly Observations for December 6, 2018

Temp ( °F °C ) Dew Point ( °F °C ) Humidity (%) Winds ( mph kmh ) Pressure ( in mb ) Visibility ( mi km ) Precip ( " mm )
12:18 am 00:18 Mostly Cloudy 28 -2.2 21 -6.1 75 75 S 8 13 30.36 1028 10 16 0.00 0.00
12:34 am 00:34 Partly Cloudy 28 -2.2 21 -6.1 75 75 S 8 13 30.36 1028 10 16 0.00 0.00
12:53 am 00:53 Clear 27 -2.8 21 -6.1 78 78 S 8 13 30.34 1027 10 16 0.00 0.00
1:53 am 01:53 Clear 26 -3.3 21 -6.1 81 81 S 7 11 30.34 1027 10 16 0.00 0.00
2:53 am 02:53 Clear 26 -3.3 21 -6.1 81 81 S 7 11 30.34 1027 10 16 0.00 0.00
3:53 am 03:53 Clear 26 -3.3 21 -6.1 81 81 SSW 7 11 30.33 1027 10 16 0.00 0.00
4:53 am 04:53 Clear 26 -3.3 21 -6.1 81 81 S 8 13 30.32 1027 10 16 0.00 0.00
5:53 am 05:53 Clear 27 -2.8 22 -5.6 81 81 SSW 8 13 30.32 1027 10 16 0.00 0.00
6:53 am 06:53 Clear 27 -2.8 22 -5.6 81 81 SSW 8 13 30.31 1027 10 16 0.00 0.00
7:53 am 07:53 Partly Cloudy 28 -2.2 23 -5 81 81 SSW 7 11 30.32 1027 10 16 0.00 0.00
8:53 am 08:53 Sunny 30 -1.1 24 -4.4 79 79 S 8 13 30.31 1027 10 16 0.00 0.00
9:53 am 09:53 Cloudy 32 0 26 -3.3 79 79 S 9 15 30.31 1026 10 16 0.00 0.00
10:53 am 10:53 Mostly Cloudy 35 1.7 27 -2.8 72 72 SSW 13 20 30.29 1026 10 16 0.00 0.00
11:53 am 11:53 Mostly Cloudy 38 3.3 28 -2.2 68 68 SSW 15 24 30.27 1025 10 16 0.00 0.00
12:53 pm 12:53 Partly Cloudy 41 5 29 -1.7 62 62 SW 13 20 30.26 1025 10 16 0.00 0.00
1:27 pm 13:27 Mostly Cloudy 42 5.6 27 -2.8 55 55 undefined N/A 30.24 1024 N/A 0.00 0.00
1:53 pm 13:53 Cloudy 43 6.1 27 -2.8 53 53 SW 14 22 30.24 1024 10 16 0.00 0.00
2:53 pm 14:53 Cloudy 43 6.1 29 -1.7 58 58 W 9 15 30.24 1024 10 16 0.00 0.00
3:53 pm 15:53 Cloudy 41 5 30 -1.1 65 65 W 8 13 30.26 1025 10 16 0.00 0.00
4:53 pm 16:53 Cloudy 41 5 30 -1.1 65 65 WSW 7 11 30.27 1025 10 16 0.00 0.03
5:53 pm 17:53 Cloudy 39 3.9 30 -1.1 70 70 SW 5 7 30.26 1025 10 16 0.00 0.00
6:53 pm 18:53 Cloudy 40 4.4 31 -0.6 70 70 NW 9 15 30.29 1026 10 16 0.00 0.00
7:14 pm 19:14 Cloudy with Light Rain 38 3.3 33 0.6 83 83 WNW 9 15 30.30 1026 5 8 0.00 0.03
7:53 pm 19:53 Cloudy with Light Rain 35 1.7 32 0 89 89 VRB 3 6 30.33 1027 5 8 0.02 0.51
8:53 pm 20:53 Cloudy with Light Rain 35 1.7 31 -0.6 85 85 VRB 6 9 30.35 1028 10 16 0.00 0.03
9:53 pm 21:53 Cloudy 34 1.1 30 -1.1 85 85 NNW 7 11 30.37 1029 10 16 0.00 0.03
10:53 pm 22:53 Cloudy 33 0.6 26 -3.3 75 75 NNW 10 17 30.40 1029 10 16 0.00 0.00
11:28 pm 23:28 Mostly Cloudy 32 0 24 -4.4 73 73 N 9 15 30.42 1030 10 16 0.00 0.00
11:53 pm 23:53 Clear 31 -0.6 23 -5 72 72 N 6 9 30.42 1030 10 16 0.00 0.00

Powered by AerisWeather